Погода в Измерях

Россия / Республика Татарстан     55°08′17″N   49°32′15″E
темп.,
°C
ветер,
м/с
пор.,
м/с
влажн.,
%
обл.,
%
осадки,
мм/ч
давл.,
гПа
погр.,
м
13 мая, чт
чт1300:00+13вюв34645 0.0 102512
03:00+12вюв226792 0.0 102513
06:00+12в33725 0.0 102524
09:00+14юв5667100 0.0 102462
12:00+16юв566128 0.0 102496
15:00+17юв676277 0.0 102371
18:00+17юв556866 0.0 102225
21:00+15юв687499 0.0 102149
14 мая, пт
пт1400:00+14ююв677579 0.0 102150
03:00+12ююв568091 0.0 102141
06:00+12ю457919 0.0 102237
09:00+12ююз568199 0.0 102257
12:00+13ююз457629 0.0 102291
15:00+14ююз5771100 0.0 102195
18:00+14ю67730 0.0 102053
21:00+14ю5677100 0.0 102039
15 мая, сб
сб1500:00+12ю567779 0.0 102035
03:00+11ю557693 0.0 102032
06:00+12ю567571 0.0 102040
09:00+12ююз567658 0.0 102053
12:00+13ююз67705 0.0 102087
15:00+14ююз686823 0.0 1019113
18:00+15ю68675 0.0 101845
21:00+14ю67705 0.0 101840
16 мая, вс
вс1600:00+13ююз676924 0.0 101744
03:00+12ю67707 0.0 101742
06:00+12ю69745 0.0 101759
09:00+12ююз6778100 0.0 101766
12:00+14юз677252 0.0 101793
15:00+15юз57655 0.0 1016136
18:00+15ююз66665 0.0 101532
21:00+14ююз557794 0.0 101521
17 мая, пн
пн1700:00+13юз447799 0.0 101515
03:00+13юз3381100 0.0 101714
06:00+13с128914 0.0 101717
09:00+14зюз11898 0.0 101854
12:00+14ю339369 0.0 101891
15:00+13ююз239068 0.0 101889
18:00+13в119366 1.4 101713
21:00+14зсз11915 2.3 101810